Flag for U.S.A. Weather past 2 weeks in Scranton, Pennsylvania, U.S.A.

Now
78 °F

Sunny.


Feels Like: 80 °F
Forecast: 71 / 85 °F
Wind: 7 mph from North

Location: Barre - Scranton - Wilkes-Barre / Scranton International Airport

Current Time: Jul 6, 2015 at 8:51:54 PM

Latest Report: Jul 6, 2015 at 7:54 PM


Visibility: 9 mi

Pressure: 30.04 "Hg

Humidity: 64%

Dew point: 65 °F

Location of ScrantonLocation

Historic Weather in Scranton — Graph

°F

Scranton temperature yesterday

Maximum temperature yesterday: 81 °F (at 4:54 PM)
Minimum temperature yesterday: 62 °F (at 12:54 AM)
Average temperature yesterday: 68 °F

Past Weeks' High & Low Weather Summary

 TemperatureHumidityPressure
High85 °F (Jun 22, 3:54 PM)100% (Jun 28, 6:54 AM)30.16 "Hg (Jun 28, 6:54 AM)
Low54 °F (Jun 25, 5:54 AM)34% (Jun 25, 1:54 PM)29.66 "Hg (Jun 28, 4:54 AM)
Average69 °F70%29.94 "Hg
* Reported Jun 21 6:54 PM — Jul 6 6:54 PM, Scranton, Weather by CustomWeather, © 2015

Note: Actual official high and low records may vary slightly from our data, if they occured in-between our weather recording intervals... More about our weather records

Advertising

Scranton weather history for previous 24 hours

 ConditionsComfort  
Time TempWeatherWind HumidityBarometerVisibility
6:54 PM
Mon, Jul 6
81 °FSunny.6 mph58%30.06 "Hg10 mi
5:54 PM82 °FScattered clouds.5 mph56%30.07 "Hg10 mi
4:54 PM82 °FOvercast.No wind55%30.08 "Hg10 mi
3:54 PM83 °FPartly sunny.9 mph53%30.08 "Hg9 mi
2:54 PM85 °FBroken clouds.3 mph51%30.09 "Hg9 mi
1:54 PM80 °FOvercast.6 mph56%30.12 "Hg9 mi
12:54 PM82 °FScattered clouds.8 mph53%30.13 "Hg10 mi
11:54 AM80 °FOvercast.7 mph60%30.14 "Hg9 mi
10:54 AM77 °FOvercast.No wind66%30.14 "Hg7 mi
9:54 AM74 °FSunny.No wind71%30.15 "Hg7 mi
8:54 AM70 °FOvercast.No wind73%30.15 "Hg7 mi
7:54 AM66 °FPartly sunny.7 mph81%30.15 "Hg7 mi
6:54 AM64 °FSunny.No wind81%30.15 "Hg6 mi
5:54 AM62 °FFog.6 mph86%30.14 "Hg6 mi
4:54 AM63 °FClear.5 mph84%30.13 "Hg8 mi
3:54 AM63 °FClear.6 mph81%30.14 "Hg8 mi
2:54 AM63 °FClear.7 mph81%30.14 "Hg9 mi
1:54 AM64 °FClear.3 mph78%30.14 "Hg9 mi
12:54 AM65 °FClear.6 mph76%30.15 "Hg9 mi
11:54 PM
Sun, Jul 5
66 °FClear.7 mph75%30.15 "Hg9 mi
10:54 PM67 °FClear.6 mph73%30.14 "Hg10 mi
9:54 PM69 °FClear.5 mph68%30.14 "Hg10 mi
8:54 PM70 °FSunny.3 mph68%30.12 "Hg10 mi
Weather by CustomWeather, © 2015

See weather overviewHow to use our weather pages